Pittsburgh Allegheny Co., PA

5:48 PM EDT on May 28, 2017 (GMT -0400)
Allegheny County

Weather History for KAGC - October, 2012

Change the Weather History Date:

Sunday, October 7, 2012

  Actual Average Record
Temperature  
Mean Temperature 44 °F -  
Max Temperature 48 °F 69 °F 84 °F (2007)
Min Temperature 39 °F 45 °F 34 °F (1999)
Degree Days  
Heating Degree Days 20    
Moisture  
Dew Point 36 °F    
Average Humidity 70    
Maximum Humidity 89    
Minimum Humidity 54    
Precipitation  
Precipitation 0.05 in - - ()
Sea Level Pressure  
Sea Level Pressure 30.13 in    
Wind  
Wind Speed 4 mph (WNW)    
Max Wind Speed 9 mph    
Max Gust Speed -    
Visibility 10 miles    
Events Rain    
Averages and records for this station are not official NWS values.
T = Trace of Precipitation, MM = Missing Value Source: NWS Daily Summary

Daily Weather History Graph

Daily Weather History Graph

Search for Another Location

Airport or City:

Trip Planner

Search our weather history database for the weather conditions in past years. The results will help you decide how hot, cold, wet, or windy it might be!

Date:

Astronomy

Oct. 07, 2012 Rise Set
Actual Time 7:22 AM EDT 6:51 PM EDT
Civil Twilight 6:55 AM EDT 7:18 PM EDT
Nautical Twilight 6:23 AM EDT 7:50 PM EDT
Astronomical Twilight 5:52 AM EDT 8:21 PM EDT
Moon No Moon Rise 1:59 PM EDT (10/7)
Length of Visible Light 12h 23m
Length of Day
11h 28m
Waning Gibbous, 56% of the Moon is Illuminated
Oct 7
Waning Gibbous
Oct 8
Last Quarter
Oct 15
New
Oct 21
First Quarter
Oct 29
Full

Hourly Weather History & Observations

Time (EDT) Temp. Windchill Dew Point Humidity Pressure Visibility Wind Dir Wind Speed Gust Speed Precip Events Conditions
12:53 AM 46.9 °F - 35.1 °F 63% 30.12 in 10.0 mi NNW 4.6 mph - N/A   Mostly Cloudy
1:53 AM 46.9 °F - 34.0 °F 61% 30.11 in 10.0 mi Calm Calm - N/A   Overcast
2:53 AM 48.0 °F - 34.0 °F 58% 30.09 in 10.0 mi Calm Calm - N/A   Overcast
3:53 AM 46.0 °F 44.8 °F 35.1 °F 66% 30.07 in 10.0 mi NNW 3.5 mph - N/A   Overcast
4:53 AM 46.0 °F 43.9 °F 32.0 °F 58% 30.08 in 10.0 mi NW 4.6 mph - N/A   Overcast
5:53 AM 46.0 °F 44.8 °F 34.0 °F 63% 30.09 in 10.0 mi West 3.5 mph - N/A   Overcast
6:53 AM 46.0 °F - 35.1 °F 66% 30.09 in 10.0 mi Calm Calm - N/A   Overcast
7:53 AM 46.0 °F 44.8 °F 35.1 °F 66% 30.09 in 10.0 mi WSW 3.5 mph - N/A   Overcast
8:53 AM 46.0 °F - 36.0 °F 68% 30.10 in 10.0 mi Calm Calm - N/A   Overcast
9:53 AM 46.9 °F - 33.1 °F 59% 30.12 in 10.0 mi West 4.6 mph - N/A   Overcast
10:53 AM 46.9 °F - 36.0 °F 66% 30.12 in 10.0 mi West 3.5 mph - N/A   Overcast
11:53 AM 48.9 °F - 34.0 °F 56% 30.10 in 10.0 mi NNW 3.5 mph - N/A   Overcast
12:53 PM 48.9 °F - 33.1 °F 54% 30.11 in 10.0 mi WNW 4.6 mph - N/A   Overcast
1:53 PM 46.9 °F - 35.1 °F 63% 30.11 in 10.0 mi NW 8.1 mph - 0.00 in Rain Light Rain
2:53 PM 46.0 °F 43.1 °F 34.0 °F 63% 30.10 in 10.0 mi West 5.8 mph - 0.01 in Rain Light Rain
3:53 PM 44.1 °F 40.8 °F 37.0 °F 76% 30.12 in 10.0 mi WNW 5.8 mph - 0.03 in Rain Light Rain
4:53 PM 44.1 °F 40.8 °F 37.0 °F 76% 30.14 in 10.0 mi WNW 5.8 mph - 0.01 in Rain Light Rain
5:05 PM 44.6 °F 40.7 °F 37.4 °F 76% 30.10 in 10.0 mi West 6.9 mph - 0.00 in Rain Light Rain
5:27 PM 44.6 °F 40.7 °F 35.6 °F 71% 30.11 in 10.0 mi WSW 6.9 mph - 0.00 in   Overcast
5:53 PM 45.0 °F 40.1 °F 37.0 °F 74% 30.14 in 10.0 mi WSW 9.2 mph - 0.00 in Rain Light Rain
6:53 PM 43.0 °F 40.3 °F 36.0 °F 76% 30.16 in 10.0 mi West 4.6 mph - 0.00 in   Mostly Cloudy
7:04 PM 42.8 °F 39.3 °F 37.4 °F 81% 30.13 in 10.0 mi West 5.8 mph - N/A   Mostly Cloudy
7:53 PM 43.0 °F 39.5 °F 37.9 °F 82% 30.18 in 10.0 mi West 5.8 mph - 0.00 in   Overcast
8:06 PM 42.8 °F 40.1 °F 37.4 °F 81% 30.14 in 10.0 mi Variable 4.6 mph - N/A   Overcast
8:53 PM 43.0 °F 40.3 °F 37.9 °F 82% 30.19 in 10.0 mi West 4.6 mph - N/A   Mostly Cloudy
9:53 PM 42.1 °F - 37.0 °F 82% 30.20 in 10.0 mi Calm Calm - N/A   Clear
10:53 PM 41.0 °F 38.0 °F 36.0 °F 82% 30.20 in 10.0 mi West 4.6 mph - N/A   Clear
11:53 PM 39.0 °F 36.8 °F 36.0 °F 89% 30.20 in 10.0 mi SSW 3.5 mph - N/A   Clear